Home > Weather > Sierra Vista > Past weeks

Flag for USA Weather for the Past 2 Weeks in Sierra Vista, Arizona, USA

Now
45 °F

Clear.


Feels Like: 44 °F
Forecast: 43 / 69 °F
Wind: 3 mph from Northwest

Location: Fort Huachuca

Current Time: Apr 29, 2016 at 3:59:42 AM

Latest Report: Apr 29, 2016 at 2:58 AM


Visibility: 9 mi

Pressure: 29.78 "Hg (25.14 "Hg at 1390m altitude)

Humidity: 47%

Dew Point: 26 °F

Location of Sierra VistaLocation

Historic Weather in Sierra Vista — Graph

°F

Sierra Vista Temperature Yesterday

Maximum temperature yesterday: 74 °F (at 1:58 PM)
Minimum temperature yesterday: 49 °F (at 11:58 PM)
Average temperature yesterday: 62 °F

High & Low Weather Summary for the Past Weeks

 TemperatureHumidityPressure
High86 °F (Apr 22, 1:58 PM)58% (Apr 24, 5:58 AM)30.08 "Hg (Apr 24, 5:58 AM)
Low42 °F (Apr 16, 5:58 AM)5% (Apr 20, 1:58 PM)29.55 "Hg (Apr 15, 3:58 PM)
Average64 °F21%29.83 "Hg
* Reported Apr 14 1:58 AM — Apr 29 1:58 AM, Sierra Vista, Weather by CustomWeather, © 2016

Note: Actual official high and low records may vary slightly from our data, if they occured in-between our weather recording intervals... More about our weather records

Advertising

Sierra Vista Weather History for the Previous 24 Hours

Scroll right to see more
 ConditionsComfort  
Time TempWeatherWind HumidityBarometerVisibility
1:58 AM
Fri, Apr 29
44 °FClear.3 mph50%29.78 "Hg9 mi
12:58 AM48 °FClear.8 mph47%29.77 "Hg9 mi
11:58 PM
Thu, Apr 28
49 °FClear.5 mph47%29.77 "Hg9 mi
10:58 PM51 °FClear.2 mph46%29.75 "Hg9 mi
9:58 PM52 °FClear.17 mph45%29.75 "Hg9 mi
8:58 PM54 °FClear.16 mph38%29.72 "Hg9 mi
7:58 PM56 °FClear.23 mph23%29.69 "Hg10 mi
5:58 PM67 °FSunny.21 mph14%29.60 "Hg8 mi
4:58 PM70 °FPassing clouds.23 mph15%29.58 "Hg8 mi
3:58 PM72 °FScattered clouds.23 mph14%29.57 "Hg9 mi
2:58 PM72 °FSunny.28 mph14%29.59 "Hg8 mi
1:58 PM74 °FSunny.25 mph9%29.59 "Hg9 mi
12:58 PM72 °FSunny.15 mph12%29.59 "Hg9 mi
12:04 PM72 °FSunny.17 mph10%29.81 "Hg8 mi
11:58 AM72 °FSunny.20 mph9%29.61 "Hg9 mi
10:58 AM70 °FSunny.14 mph10%29.63 "Hg9 mi
9:58 AM66 °FSunny.14 mph16%29.66 "Hg9 mi
9:00 AM64 °FSunny.13 mph16%29.84 "Hg9 mi
8:58 AM65 °FSunny.15 mph16%29.66 "Hg9 mi
7:58 AM61 °FSunny.15 mph20%29.68 "Hg9 mi
7:03 AM59 °FSunny.14 mph21%29.85 "Hg7 mi
6:58 AM58 °FSunny.8 mph22%29.67 "Hg7 mi
5:58 AM55 °FSunny.10 mph22%29.65 "Hg8 mi
4:58 AM54 °FClear.6 mph20%29.64 "Hg10 mi
3:58 AM54 °FClear.6 mph21%29.64 "Hg10 mi
Weather by CustomWeather, © 2016

See weather overviewHow to use our weather pages